Preview of NWS' New Version of Forecast
This preview is not operational and should not be used for support decisions.

Regional Weather Roundup (RWR)

Issued by National Weather Service (NWS)

                            
000
ASUS43 KMKX 241800
RWRWI 

WISCONSIN REGIONAL WEATHER ROUNDUP
NATIONAL WEATHER SERVICE MILWAUKEE/SULLIVAN WI
100 PM CDT FRI MAY 24 2019

NOTE: "FAIR" INDICATES FEW OR NO CLOUDS BELOW 12,000 FEET WITH NO
SIGNIFICANT WEATHER AND/OR OBSTRUCTIONS TO VISIBILITY.

WIZ001-002-006>008-014>016-023>028-241900-
NORTHWEST WISCONSIN
  
CITY           SKY/WX    TMP DP  RH WIND       PRES   REMARKS
SUPERIOR ARPT  CLOUDY    41  41  99 NE14G22   29.97S                  
6HR MIN TEMP:  41; 6HR MAX TEMP:  46;                                

ASHLAND        CLOUDY    52  47  83 VRB5      29.99F                  
6HR MIN TEMP:  48; 6HR MAX TEMP:  56;                                

HAYWARD        CLOUDY    55  49  80 SE9G18    29.95F                  
6HR MIN TEMP:  49; 6HR MAX TEMP:  57; 6HR PCP: TRACE;                

SIREN          CLOUDY    55  48  76 SE9G18    29.91F                  
CUMBERLAND     RAIN      52  46  82 SE12G20   29.93F                  
RICE LAKE      LGT RAIN  54  49  84 SE10      29.95F                  
6HR MIN TEMP:  51; 6HR MAX TEMP:  55;                                

CHETEK         LGT RAIN  54  51  88 SE9G23    29.95F                  
LADYSMITH      CLOUDY    55  50  85 SE8       30.00F                  
6HR MIN TEMP:  49; 6HR MAX TEMP:  55;                                

EAU CLAIRE     NOT AVBL                                               
MENOMONIE      CLOUDY    54  49  83 E18       29.92F                  
6HR MIN TEMP:  49; 6HR MAX TEMP:  54;                                

NEW RICHMOND   CLOUDY    56  51  82 SE13G18   29.89F                  
6HR MIN TEMP:  51; 6HR MAX TEMP:  56;                                

OSCEOLA        CLOUDY    55  51  86 SE15      29.91F                  
$$
 
WIZ003>005-009-010-017-018-241900-
NORTH CENTRAL WISCONSIN
  
CITY           SKY/WX    TMP DP  RH WIND       PRES   REMARKS
MANITOWISH WTR CLOUDY    53  47  79 SE12      30.01F                  
6HR MIN TEMP:  46; 6HR MAX TEMP:  53;                                

ARBOR VITAE    CLOUDY    57  49  76 SE9       30.02F                  
WOODRUFF       CLOUDY    57  49  76 SE9       30.02F                  
RHINELANDER    CLOUDY    56  45  66 S9        30.05F                  
6HR MIN TEMP:  50; 6HR MAX TEMP:  56; 6HR PCP: TRACE;                

EAGLE RIVER    CLOUDY    53  43  70 SE9       30.03F                  
6HR MIN TEMP:  46; 6HR MAX TEMP:  53;                                

LAND O LAKES   CLOUDY    54  45  71 SE5G16    30.06F                  
6HR MIN TEMP:  46; 6HR MAX TEMP:  54;                                

PHILLIPS       DRIZZLE   51  49  94 SE9       30.00R                  
6HR MIN TEMP:  47; 6HR MAX TEMP:  52;                                

TOMAHAWK       LGT RAIN  51  46  83 SE8       30.04S                  
MEDFORD        CLOUDY    51  48  87 SE10      30.02R                  
MERRILL        CLOUDY    52  50  92 SE10      30.04F                  
6HR MIN TEMP:  48; 6HR MAX TEMP:  52;                                

$$
 
WIZ029-030-035-036-043>047-241900-
CENTRAL WISCONSIN
  
CITY           SKY/WX    TMP DP  RH WIND       PRES   REMARKS
WAUSAU         CLOUDY    52  49  89 SE12      30.04R                  
6HR MIN TEMP:  49; 6HR MAX TEMP:  52; 6HR PCP:  0.01;                

MOSINEE        CLOUDY    54  48  82 E7        30.05R                  
MARSHFIELD     CLOUDY    53  50  89 SE15G21   30.01R                  
6HR MIN TEMP:  49; 6HR MAX TEMP:  54; 6HR PCP: TRACE;                

STEVENS POINT  CLOUDY    52  50  93 SE14G22   30.04S                  
WAUPACA        CLOUDY    57  51  80 E9G18     30.05R                  
6HR MIN TEMP:  52; 6HR MAX TEMP:  58;                                

WAUTOMA        CLOUDY    56  53  90 E6        30.05R                  
6HR MIN TEMP:  50; 6HR MAX TEMP:  56; 6HR PCP:  0.07;                

WISC RAPIDS    CLOUDY    55  51  86 E10       30.03R                  
6HR MIN TEMP:  50; 6HR MAX TEMP:  56; 6HR PCP:  0.02;                

CAMP DOUGLAS   CLOUDY    57  57 100 E7        30.00R                  
$$
 
WIZ011>013-019>022-031-037>040-048>050-241900-
NORTHEAST WISCONSIN
  
CITY           SKY/WX    TMP DP  RH WIND       PRES   REMARKS
ANTIGO         CLOUDY    50  48  92 SE13G18   30.06F                  
SHAWANO        CLOUDY    58  50  74 SE10      30.07F                  
6HR MIN TEMP:  52; 6HR MAX TEMP:  58; 6HR PCP:  0.01;                

OCONTO         CLOUDY    53  46  78 E13       30.09F                  
6HR MIN TEMP:  50; 6HR MAX TEMP:  54;                                

STURGEON BAY   CLOUDY    51  46  83 E14       30.11F                  
6HR MIN TEMP:  49; 6HR MAX TEMP:  52;                                

GREEN BAY      CLOUDY    56  49  77 E9G22     30.07F                  
6HR MIN TEMP:  51; 6HR MAX TEMP:  56; 6HR PCP: TRACE;                

MANITOWOC      CLOUDY    50  46  86 SE14      30.10F                  
6HR MIN TEMP:  48; 6HR MAX TEMP:  50; 6HR PCP: TRACE;                

APPLETON       CLOUDY    54  46  76 E10G21    30.04F                  
CLINTONVILLE   CLOUDY    56  48  73 SE13      30.05S                  
6HR MIN TEMP:  49; 6HR MAX TEMP:  56;                                

OSHKOSH        FAIR      54  51  90 SE25G41   29.97F                  
6HR MIN TEMP:  52; 6HR MAX TEMP:  54; 6HR PCP:  0.05;                

$$
 
WIZ032>034-041-042-053>061-241900-
SOUTHWEST WISCONSIN
  
CITY           SKY/WX    TMP DP  RH WIND       PRES   REMARKS
LA CROSSE      CLOUDY    63  55  75 SE10      29.93F                  
6HR MIN TEMP:  55; 6HR MAX TEMP:  63; 6HR PCP:  0.12;                

SPARTA         CLOUDY    58  54  88 CALM      29.99F                  
VIROQUA        CLOUDY    60  60  97 SE15G22   29.95F                  
6HR MIN TEMP:  51; 6HR MAX TEMP:  60; 6HR PCP:  0.15;                

BOSCOBEL       FAIR      65  57  75 VRB3      29.97S                  
6HR MIN TEMP:  55; 6HR MAX TEMP:  65; 6HR PCP:  0.38;                

PRAIRIE DU CHI PTSUNNY   63  56  78 SE12G17   29.96S                  
6HR MIN TEMP:  54; 6HR MAX TEMP:  63; 6HR PCP:  0.39;                

PLATTEVILLE    FAIR      61  61  99 SE16      30.00F                  
6HR MIN TEMP:  54; 6HR MAX TEMP:  61; 6HR PCP:  0.81;                

$$

WIZ056-057-062-063-064-067-068-241900-
SOUTH CENTRAL WISCONSIN
  
CITY           SKY/WX    TMP DP  RH WIND       PRES   REMARKS
REEDSBURG      CLOUDY    57  57 100 SE5       29.97F                  
6HR MIN TEMP:  51; 6HR MAX TEMP:  57;                                

BARABOO/DELLS  CLOUDY    57  55  92 SE16G22   29.97F                  
6HR MIN TEMP:  51; 6HR MAX TEMP:  57; 6HR PCP:  0.24;                

LONE ROCK      CLOUDY    61  57  87 SE10      29.98F                  
MINERAL POINT  FAIR      61 N/A N/A SE14G24   29.98F                  
MADISON        CLOUDY    60  56  86 SE17      29.99F                  
6HR MIN TEMP:  53; 6HR MAX TEMP:  60; 6HR PCP:  0.51;                

MIDDLETON      CLOUDY    59  57  92 SE13      30.00R                  
WATERTOWN      DRIZZLE   56  56 100 E7        30.08F                  
MONROE         FAIR      59  56  91 S18       30.03R                  
JANESVILLE     LGT RAIN  59  59 100 SE12      30.03F                  
$$
 
WIZ051-052-058>065-066-070>072-241900-
SOUTHEAST WISCONSIN
  
CITY           SKY/WX    TMP DP  RH WIND       PRES   REMARKS
MILWAUKEE      RAIN      52  49  89 E14       30.05F FOG              
6HR MIN TEMP:  52; 6HR MAX TEMP:  57; 6HR PCP:  0.43;                

WAUKESHA       CLOUDY    54  54 100 E7        30.08F                  
MILWAUKEE/TIMM LGT RAIN  54  48  82 E3        30.09F FOG              
RACINE         LGT RAIN  54  52  93 E14       30.07F                  
6HR MIN TEMP:  53; 6HR MAX TEMP:  57; 6HR PCP:  0.41;                

KENOSHA        LGT RAIN  56  55  97 SE17G24   30.04F FOG              
6HR MIN TEMP:  54; 6HR MAX TEMP:  58; 6HR PCP:  0.39;                

FOND DU LAC    LGT RAIN  55  51  86 SE21G26   30.02F                  
6HR MIN TEMP:  53; 6HR MAX TEMP:  56; 6HR PCP:  0.13;                

SHEBOYGAN      LGT RAIN  51  49  92 SE7       30.12F                  
6HR MIN TEMP:  48; 6HR MAX TEMP:  53; 6HR PCP:  0.08;                

WEST BEND      RAIN      52  52 100 E7        30.10F                  
JUNEAU         LGT RAIN  55  54  98 SE10      30.06F                  
6HR MIN TEMP:  50; 6HR MAX TEMP:  56; 6HR PCP:  0.26;                

$$

LSZ147-162-241900-
LAKE SUPERIOR
  
STATION/POSITION TIME  TEMP    WIND        PRES    WAVE
                       AIR SEA DIR/SP/G            HT/PER
                 (UTC) (F)     (DEG/KT/KT) (MB)    (FT/S)
W MID LAKE BUOY  1550   39 37   50/ 14/ 16 1019.3F
$$
 
LMZ867-665-643>646-241900-
LAKE MICHIGAN
  
STATION/POSITION TIME  TEMP    WIND        PRES    WAVE
                       AIR SEA DIR/SP/G            HT/PER
                 (UTC) (F)     (DEG/KT/KT) (MB)    (FT/S)
N MID LAKE BUOY  1740   41 37   60/  4/  4 1021.0F
NORTHPORT PIER   1740   46     140/  4/  5 1020.7F
KEWAUNEE LAKESHO 1730   47     100/  2/  5 1019.8F
SHEBOYGAN LAKESH 1700   45      10/  6/  6 1021.2R
MILWAUKEE LAKESH 1730   46      90/  8/  9   N/A
S MID LAKE BUOY  1740   41 40  330/  8/ 14 1023.7R
KENOSHA   LAKESH 1700   50      10/  4/  6 1021.3
$$

TC  - TEMPERATURE IN CELSIUS
VSB - VISIBILITY IN STATUTE MILES
WCI - WIND CHILL INDEX
HX  - HEAT INDEX